Aroma Park, IL

8:14 PM CST on February 09, 2016 (GMT -0600)
Greater Kankakee

Weather History for KIKK - March, 2014

Change the Weather History Date:

Sunday, March 16, 2014

  Actual Average Record
Temperature  
Mean Temperature 26 °F -  
Max Temperature 30 °F 47 °F 109 °F (2003)
Min Temperature 20 °F 26 °F 12 °F (1979)
Degree Days  
Heating Degree Days 40    
Moisture  
Dew Point 14 °F    
Average Humidity 62    
Maximum Humidity 81    
Minimum Humidity 39    
Precipitation  
Precipitation 0.00 in - - ()
Sea Level Pressure  
Sea Level Pressure 30.22 in    
Wind  
Wind Speed 17 mph (NE)    
Max Wind Speed 25 mph    
Max Gust Speed 34 mph    
Visibility 10 miles    
Events      
Averages and records for this station are not official NWS values.
T = Trace of Precipitation, MM = Missing Value Source: NWS Daily Summary

Daily Weather History Graph

Daily Weather History Graph

Search for Another Location

Airport or City:

Trip Planner

Search our weather history database for the weather conditions in past years. The results will help you decide how hot, cold, wet, or windy it might be!

Date:

Astronomy

Mar. 16, 2014 Rise Set
Actual Time 7:01 AM CDT 6:59 PM CDT
Civil Twilight 6:34 AM CDT 7:26 PM CDT
Nautical Twilight 6:02 AM CDT 7:58 PM CDT
Astronomical Twilight 5:29 AM CDT 8:31 PM CDT
Moon 7:16 PM CDT (3/16) 6:44 AM CDT (3/16)
Length of Visible Light 12h 52m
Length of Day
11h 57m
Full, 100% of the Moon is Illuminated
Mar 16
Full
Mar 16
Full
Mar 23
Last Quarter
Mar 30
New
Apr 7
First Quarter

Hourly Weather History & Observations

Time (CDT) Temp. Windchill Dew Point Humidity Pressure Visibility Wind Dir Wind Speed Gust Speed Precip Events Conditions
12:15 AM 29.3 °F 18.2 °F 24.3 °F 81% 30.21 in 10.0 mi NE 15.0 mph 19.6 mph N/A   Overcast
12:35 AM 29.7 °F 17.4 °F 24.6 °F 81% 30.22 in 10.0 mi NNE 18.4 mph 25.3 mph N/A   Overcast
12:55 AM 29.8 °F 18.0 °F 24.6 °F 81% 30.22 in 10.0 mi NNE 17.3 mph 24.2 mph N/A   Overcast
1:15 AM 29.8 °F 18.4 °F 24.4 °F 80% 30.22 in 10.0 mi NE 16.1 mph 23.0 mph N/A   Overcast
1:35 AM 30.0 °F 17.9 °F 24.3 °F 79% 30.21 in 10.0 mi NE 18.4 mph 23.0 mph N/A   Overcast
1:55 AM 30.2 °F 19.3 °F 23.7 °F 77% 30.22 in 10.0 mi NNE 15.0 mph 21.9 mph N/A   Overcast
2:15 AM 30.4 °F 19.1 °F 22.6 °F 73% 30.23 in 10.0 mi NE 16.1 mph 21.9 mph N/A   Overcast
2:35 AM 30.6 °F 18.2 °F 21.6 °F 69% 30.24 in 10.0 mi NE 19.6 mph 26.5 mph N/A   Overcast
2:55 AM 30.0 °F 16.0 °F 18.7 °F 63% 30.23 in 10.0 mi NE 25.3 mph 34.5 mph N/A   Overcast
3:15 AM 29.5 °F 16.8 °F 18.3 °F 63% 30.23 in 10.0 mi NE 19.6 mph 28.8 mph N/A   Overcast
3:35 AM 29.1 °F 16.4 °F 18.5 °F 65% 30.24 in 10.0 mi NE 19.6 mph 27.6 mph N/A   Overcast
3:55 AM 28.2 °F 14.8 °F 19.0 °F 68% 30.24 in 10.0 mi NE 20.7 mph 28.8 mph N/A   Overcast
4:15 AM 27.5 °F 13.5 °F 19.4 °F 72% 30.24 in 10.0 mi NE 21.9 mph 29.9 mph N/A   Overcast
4:35 AM 27.5 °F 15.4 °F 18.1 °F 68% 30.26 in 10.0 mi NE 16.1 mph 25.3 mph N/A   Overcast
4:55 AM 27.3 °F 14.4 °F 16.5 °F 64% 30.25 in 10.0 mi NNE 18.4 mph 27.6 mph N/A   Overcast
5:15 AM 26.6 °F 13.8 °F 15.6 °F 63% 30.24 in 10.0 mi NE 17.3 mph 28.8 mph N/A   Overcast
5:35 AM 26.2 °F 13.8 °F 15.1 °F 63% 30.25 in 10.0 mi NNE 16.1 mph 27.6 mph N/A   Overcast
5:55 AM 26.1 °F 12.7 °F 14.2 °F 61% 30.26 in 10.0 mi NNE 18.4 mph 29.9 mph N/A   Overcast
6:15 AM 25.3 °F 13.6 °F 13.1 °F 60% 30.25 in 10.0 mi NE 13.8 mph 26.5 mph N/A   Overcast
6:35 AM 24.8 °F 9.6 °F 9.3 °F 52% 30.25 in 10.0 mi NE 23.0 mph 32.2 mph N/A   Overcast
6:55 AM 24.3 °F 10.0 °F 10.6 °F 56% 30.26 in 10.0 mi NE 19.6 mph 34.5 mph N/A   Overcast
7:15 AM 24.4 °F 9.9 °F 11.3 °F 57% 30.25 in 10.0 mi NNE 20.7 mph 28.8 mph N/A   Overcast
7:35 AM 24.4 °F 10.6 °F 9.1 °F 52% 30.25 in 10.0 mi NNE 18.4 mph 27.6 mph N/A   Overcast
7:55 AM 24.3 °F 10.4 °F 10.6 °F 56% 30.25 in 10.0 mi NNE 18.4 mph 29.9 mph N/A   Overcast
8:15 AM 23.9 °F 10.8 °F 12.0 °F 61% 30.26 in 10.0 mi NNE 16.1 mph 28.8 mph N/A   Overcast
8:35 AM 23.5 °F 8.7 °F 12.7 °F 63% 30.26 in 10.0 mi NNE 20.7 mph 29.9 mph N/A   Overcast
8:55 AM 23.7 °F 10.5 °F 13.6 °F 65% 30.27 in 10.0 mi NNE 16.1 mph 27.6 mph N/A   Overcast
9:15 AM 24.1 °F 9.4 °F 12.6 °F 62% 30.28 in 10.0 mi NE 20.7 mph 26.5 mph N/A   Mostly Cloudy
9:35 AM 23.9 °F 10.8 °F 12.4 °F 62% 30.28 in 10.0 mi NE 16.1 mph 25.3 mph N/A   Scattered Clouds
9:55 AM 23.5 °F 9.9 °F 11.3 °F 60% 30.29 in 10.0 mi NNE 17.3 mph 23.0 mph N/A   Scattered Clouds
10:15 AM 23.7 °F 10.5 °F 9.1 °F 54% 30.29 in 10.0 mi NNE 16.1 mph 23.0 mph N/A   Overcast
10:35 AM 23.9 °F 10.8 °F 10.0 °F 56% 30.30 in 10.0 mi NNE 16.1 mph 21.9 mph N/A   Overcast
10:55 AM 24.3 °F 11.2 °F 9.5 °F 53% 30.29 in 10.0 mi NE 16.1 mph 21.9 mph N/A   Scattered Clouds
11:15 AM 24.6 °F 10.5 °F 8.4 °F 50% 30.29 in 10.0 mi NE 19.6 mph 25.3 mph N/A   Clear
11:35 AM 24.8 °F 10.7 °F 8.8 °F 51% 30.29 in 10.0 mi NE 19.6 mph 25.3 mph N/A   Clear
11:55 AM 25.9 °F 12.5 °F 10.4 °F 52% 30.29 in 10.0 mi NE 18.4 mph 24.2 mph N/A   Clear
12:15 PM 26.4 °F 13.2 °F 10.8 °F 52% 30.29 in 10.0 mi NNE 18.4 mph 24.2 mph N/A   Clear
12:35 PM 26.8 °F 13.7 °F 9.3 °F 48% 30.28 in 10.0 mi NE 18.4 mph 25.3 mph N/A   Scattered Clouds
12:55 PM 27.1 °F 14.1 °F 7.5 °F 44% 30.27 in 10.0 mi ENE 18.4 mph 27.6 mph N/A   Scattered Clouds
1:15 PM 28.9 °F 16.5 °F 8.6 °F 42% 30.27 in 10.0 mi ENE 18.4 mph 24.2 mph N/A   Clear
1:35 PM 28.9 °F 15.4 °F 6.8 °F 39% 30.26 in 10.0 mi NE 21.9 mph 27.6 mph N/A   Clear
1:55 PM 29.3 °F 16.2 °F 8.2 °F 41% 30.24 in 10.0 mi NE 20.7 mph 26.5 mph N/A   Clear
2:15 PM 29.5 °F 18.0 °F 8.2 °F 41% 30.23 in 10.0 mi NNE 16.1 mph 29.9 mph N/A   Clear
2:35 PM 28.8 °F 17.5 °F 14.4 °F 55% 30.22 in 10.0 mi NNE 15.0 mph 21.9 mph N/A   Clear
2:55 PM 28.4 °F 16.6 °F 12.9 °F 52% 30.21 in 10.0 mi NNE 16.1 mph 25.3 mph N/A   Clear
3:15 PM 29.7 °F 18.6 °F 14.0 °F 52% 30.20 in 10.0 mi NNE 15.0 mph 26.5 mph N/A   Clear
3:35 PM 28.8 °F 17.0 °F 15.1 °F 57% 30.20 in 10.0 mi NNE 16.1 mph 23.0 mph N/A   Clear
3:55 PM 27.5 °F 15.4 °F 13.5 °F 56% 30.20 in 10.0 mi NNE 16.1 mph 25.3 mph N/A   Clear
4:15 PM 28.0 °F 15.3 °F 13.8 °F 55% 30.19 in 10.0 mi NNE 18.4 mph 24.2 mph N/A   Clear
4:35 PM 27.1 °F 15.4 °F 13.1 °F 56% 30.19 in 10.0 mi NNE 15.0 mph 23.0 mph N/A   Clear
4:55 PM 27.5 °F 16.3 °F 13.6 °F 56% 30.18 in 10.0 mi NNE 13.8 mph 20.7 mph N/A   Clear
5:15 PM 27.1 °F 14.5 °F 13.6 °F 57% 30.18 in 10.0 mi NNE 17.3 mph 23.0 mph N/A   Clear
5:35 PM 26.8 °F 14.5 °F 13.5 °F 57% 30.18 in 10.0 mi NNE 16.1 mph 20.7 mph N/A   Clear
5:55 PM 26.2 °F 14.7 °F 13.6 °F 59% 30.17 in 10.0 mi NE 13.8 mph 17.3 mph N/A   Clear
6:15 PM 25.7 °F 13.5 °F 13.5 °F 60% 30.17 in 10.0 mi NNE 15.0 mph 20.7 mph N/A   Clear
6:35 PM 24.8 °F 11.9 °F 13.8 °F 63% 30.17 in 10.0 mi NNE 16.1 mph 20.7 mph N/A   Clear
6:55 PM 24.4 °F 11.9 °F 13.6 °F 64% 30.17 in 10.0 mi NNE 15.0 mph 21.9 mph N/A   Clear
7:15 PM 23.9 °F 12.3 °F 13.8 °F 65% 30.17 in 10.0 mi NNE 12.7 mph 19.6 mph N/A   Clear
7:35 PM 23.9 °F 12.9 °F 13.8 °F 65% 30.17 in 10.0 mi NNE 11.5 mph 20.7 mph N/A   Clear
7:55 PM 23.7 °F 11.0 °F 14.7 °F 69% 30.18 in 10.0 mi NNE 15.0 mph 21.9 mph N/A   Clear
8:15 PM 23.5 °F 11.3 °F 14.7 °F 69% 30.18 in 10.0 mi NNE 13.8 mph 21.9 mph N/A   Clear
8:35 PM 23.0 °F 11.1 °F 14.9 °F 71% 30.17 in 10.0 mi NNE 12.7 mph 18.4 mph N/A   Clear
8:55 PM 23.0 °F 11.1 °F 14.9 °F 71% 30.17 in 10.0 mi NNE 12.7 mph - N/A   Clear
9:15 PM 22.8 °F 11.5 °F 14.9 °F 72% 30.16 in 10.0 mi NNE 11.5 mph - N/A   Clear
9:35 PM 22.6 °F 11.3 °F 14.9 °F 72% 30.16 in 10.0 mi NNE 11.5 mph - N/A   Clear
9:55 PM 22.6 °F 14.3 °F 14.9 °F 72% 30.16 in 10.0 mi NNE 6.9 mph - N/A   Clear
10:15 PM 22.1 °F 12.8 °F 14.0 °F 71% 30.15 in 10.0 mi NE 8.1 mph - N/A   Clear
10:35 PM 21.7 °F 12.3 °F 14.0 °F 72% 30.15 in 10.0 mi NE 8.1 mph - N/A   Clear
10:55 PM 21.7 °F 12.3 °F 13.3 °F 70% 30.15 in 10.0 mi NE 8.1 mph - N/A   Clear
11:15 PM 21.2 °F 10.9 °F 12.6 °F 69% 30.15 in 10.0 mi NE 9.2 mph - N/A   Clear
11:35 PM 21.2 °F 11.7 °F 11.5 °F 66% 30.14 in 10.0 mi NE 8.1 mph - N/A   Clear
11:55 PM 20.8 °F 12.1 °F 12.0 °F 69% 30.14 in 10.0 mi NE 6.9 mph - N/A   Clear